Time,TemperatureF,DewpointF,PressureIn,WindDirection,WindDirectionDegrees,WindSpeedMPH,WindSpeedGustMPH,Humidity,HourlyPrecipIn,Conditions,Clouds,dailyrainin,SoftwareType,DateUTC
2013-03-16 00:00:00,63.0,35.6,29.96,NW,315,3.1,3.4,35,0.00,,,0.00,tws,2013-03-16 07:00:00,
2013-03-16 00:10:00,62.7,35.2,29.96,NW,315,3.1,3.6,35,0.00,,,0.00,tws,2013-03-16 07:10:00,
2013-03-16 00:20:00,62.4,35.0,29.96,NW,315,2.8,3.5,35,0.00,,,0.00,tws,2013-03-16 07:20:00,
2013-03-16 00:30:00,62.1,35.4,29.96,NW,315,3.2,3.4,36,0.00,,,0.00,tws,2013-03-16 07:30:00,
2013-03-16 00:40:00,61.8,35.5,29.96,WNW,292,2.1,2.8,37,0.00,,,0.00,tws,2013-03-16 07:40:00,
2013-03-16 00:50:00,61.5,35.6,29.96,WNW,292,2.0,2.8,37,0.00,,,0.00,tws,2013-03-16 07:50:00,
2013-03-16 01:00:00,61.1,35.4,29.96,West,270,2.5,3.2,37,0.00,,,0.00,tws,2013-03-16 08:00:00,
2013-03-16 01:10:00,60.7,34.7,29.96,WNW,292,2.3,3.0,37,0.00,,,0.00,tws,2013-03-16 08:10:00,
2013-03-16 01:20:00,60.5,34.7,29.95,NW,315,2.0,2.5,37,0.00,,,0.00,tws,2013-03-16 08:20:00,
2013-03-16 01:30:00,60.3,35.0,29.95,NW,315,2.0,2.8,38,0.00,,,0.00,tws,2013-03-16 08:30:00,
2013-03-16 01:40:00,60.0,34.4,29.96,NW,315,3.2,3.7,37,0.00,,,0.00,tws,2013-03-16 08:40:00,
2013-03-16 01:50:00,59.9,34.3,29.96,NW,315,3.2,4.0,37,0.00,,,0.00,tws,2013-03-16 08:50:00,
2013-03-16 02:00:00,59.9,33.7,29.94,West,270,3.6,4.1,36,0.00,,,0.00,tws,2013-03-16 09:00:00,
2013-03-16 02:10:00,60.1,33.2,29.94,NW,315,3.7,4.1,36,0.00,,,0.00,tws,2013-03-16 09:10:00,
2013-03-16 02:20:00,60.6,32.4,29.94,West,270,3.6,4.1,34,0.00,,,0.00,tws,2013-03-16 09:20:00,
2013-03-16 02:30:00,60.8,31.9,29.94,West,270,2.0,3.2,33,0.00,,,0.00,tws,2013-03-16 09:30:00,
2013-03-16 02:40:00,60.7,32.0,29.94,West,270,1.9,2.1,33,0.00,,,0.00,tws,2013-03-16 09:40:00,
2013-03-16 02:50:00,60.2,31.3,29.94,West,270,2.1,3.2,33,0.00,,,0.00,tws,2013-03-16 09:50:00,
2013-03-16 03:00:00,59.7,30.8,29.94,West,270,1.9,2.6,33,0.00,,,0.00,tws,2013-03-16 10:00:00,
2013-03-16 03:10:00,59.3,30.8,29.93,West,270,1.9,2.4,33,0.00,,,0.00,tws,2013-03-16 10:10:00,
2013-03-16 03:20:00,58.9,30.8,29.93,WNW,292,1.5,3.1,34,0.00,,,0.00,tws,2013-03-16 10:20:00,
2013-03-16 03:30:00,58.4,30.9,29.93,NW,315,1.5,2.9,34,0.00,,,0.00,tws,2013-03-16 10:30:00,
2013-03-16 03:40:00,57.8,31.0,29.92,NW,315,2.7,3.3,35,0.00,,,0.00,tws,2013-03-16 10:40:00,
2013-03-16 03:50:00,57.5,31.0,29.92,WNW,292,2.5,3.6,36,0.00,,,0.00,tws,2013-03-16 10:50:00,
2013-03-16 04:00:00,57.3,30.7,29.92,WNW,292,2.0,3.5,35,0.00,,,0.00,tws,2013-03-16 11:00:00,
2013-03-16 04:10:00,57.1,30.6,29.92,West,270,1.9,3.0,36,0.00,,,0.00,tws,2013-03-16 11:10:00,
2013-03-16 04:20:00,56.8,30.5,29.92,NW,315,3.1,4.3,36,0.00,,,0.00,tws,2013-03-16 11:20:00,
2013-03-16 04:30:00,56.6,30.6,29.91,NW,315,3.5,3.9,36,0.00,,,0.00,tws,2013-03-16 11:30:00,
2013-03-16 04:40:00,56.7,30.2,29.91,NW,315,4.7,5.5,36,0.00,,,0.00,tws,2013-03-16 11:40:00,
2013-03-16 04:50:00,57.1,29.7,29.91,NW,315,4.5,4.9,34,0.00,,,0.00,tws,2013-03-16 11:50:00,
2013-03-16 05:00:00,57.6,29.5,29.91,West,270,3.1,4.9,33,0.00,,,0.00,tws,2013-03-16 12:00:00,
2013-03-16 05:10:00,57.7,29.6,29.91,NE,45,0.3,2.0,33,0.00,,,0.00,tws,2013-03-16 12:10:00,
2013-03-16 05:20:00,57.3,29.4,29.91,NNW,337,0.4,2.3,34,0.00,,,0.00,tws,2013-03-16 12:20:00,
2013-03-16 05:30:00,56.7,29.6,29.91,NW,315,1.0,2.2,35,0.00,,,0.00,tws,2013-03-16 12:30:00,
2013-03-16 05:40:00,56.0,29.5,29.91,NW,315,0.7,2.3,35,0.00,,,0.00,tws,2013-03-16 12:40:00,
2013-03-16 05:50:00,55.4,29.7,29.91,NW,315,1.2,2.2,37,0.00,,,0.00,tws,2013-03-16 12:50:00,
2013-03-16 06:00:00,54.9,29.6,29.91,SW,225,0.0,0.0,37,0.00,,,0.00,tws,2013-03-16 13:00:00,
2013-03-16 06:10:00,54.4,29.5,29.91,SW,225,0.0,0.0,38,0.00,,,0.00,tws,2013-03-16 13:10:00,
2013-03-16 06:20:00,54.0,29.6,29.91,SW,225,1.6,2.4,38,0.00,,,0.00,tws,2013-03-16 13:20:00,
2013-03-16 06:30:00,53.9,29.4,29.92,SW,225,0.9,2.5,38,0.00,,,0.00,tws,2013-03-16 13:30:00,
2013-03-16 06:40:00,53.8,30.0,29.91,NW,315,0.0,0.0,39,0.00,,,0.00,tws,2013-03-16 13:40:00,
2013-03-16 06:50:00,53.5,30.1,29.91,WNW,292,0.0,0.0,40,0.00,,,0.00,tws,2013-03-16 13:50:00,
2013-03-16 07:00:00,53.2,30.3,29.91,WNW,292,0.0,0.0,41,0.00,,,0.00,tws,2013-03-16 14:00:00,
2013-03-16 07:10:00,53.1,30.0,29.91,NW,315,0.7,2.6,40,0.00,,,0.00,tws,2013-03-16 14:10:00,
2013-03-16 07:20:00,53.2,30.3,29.91,West,270,0.4,2.1,41,0.00,,,0.00,tws,2013-03-16 14:20:00,
2013-03-16 07:30:00,53.7,30.9,29.91,WNW,292,0.3,1.6,41,0.00,,,0.00,tws,2013-03-16 14:30:00,
2013-03-16 07:40:00,54.4,31.6,29.91,SE,135,0.4,1.3,41,0.00,,,0.00,tws,2013-03-16 14:40:00,
2013-03-16 07:50:00,55.4,32.5,29.91,SW,225,0.0,0.0,41,0.00,,,0.00,tws,2013-03-16 14:50:00,
2013-03-16 08:00:00,56.5,33.3,29.92,NW,315,0.3,0.9,41,0.00,,,0.00,tws,2013-03-16 15:00:00,
2013-03-16 08:10:00,58.0,34.0,29.92,NNW,337,0.1,0.7,40,0.00,,,0.00,tws,2013-03-16 15:10:00,
2013-03-16 08:20:00,59.9,34.7,29.92,WSW,247,0.6,1.6,38,0.00,,,0.00,tws,2013-03-16 15:20:00,
2013-03-16 08:30:00,62.0,35.1,29.92,East,90,0.2,0.8,36,0.00,,,0.00,tws,2013-03-16 15:30:00,
2013-03-16 08:40:00,65.0,36.6,29.93,ENE,67,0.2,1.1,34,0.00,,,0.00,tws,2013-03-16 15:40:00,
2013-03-16 08:50:00,68.0,35.9,29.93,NW,315,0.1,0.8,30,0.00,,,0.00,tws,2013-03-16 15:50:00,
2013-03-16 09:00:00,71.4,36.0,29.94,SSE,157,1.3,2.1,27,0.00,,,0.00,tws,2013-03-16 16:00:00,
2013-03-16 09:10:00,74.1,35.6,29.93,East,90,1.4,2.2,24,0.00,,,0.00,tws,2013-03-16 16:10:00,
2013-03-16 09:20:00,76.7,36.3,29.94,NE,45,2.1,3.4,22,0.00,,,0.00,tws,2013-03-16 16:20:00,
2013-03-16 09:30:00,78.4,36.5,29.94,SE,135,3.2,4.0,21,0.00,,,0.00,tws,2013-03-16 16:30:00,
2013-03-16 09:40:00,79.1,37.0,29.93,ESE,112,2.6,3.4,21,0.00,,,0.00,tws,2013-03-16 16:40:00,
2013-03-16 09:50:00,80.2,36.7,29.94,East,90,3.6,5.0,20,0.00,,,0.00,tws,2013-03-16 16:50:00,
2013-03-16 10:00:00,80.9,36.9,29.93,ESE,112,3.8,4.8,20,0.00,,,0.00,tws,2013-03-16 17:00:00,
2013-03-16 10:10:00,80.9,35.6,29.93,East,90,3.5,5.1,19,0.00,,,0.00,tws,2013-03-16 17:10:00,
2013-03-16 10:20:00,81.3,35.2,29.93,East,90,4.2,5.6,18,0.00,,,0.00,tws,2013-03-16 17:20:00,
2013-03-16 10:30:00,81.7,34.8,29.93,East,90,4.0,5.1,18,0.00,,,0.00,tws,2013-03-16 17:30:00,
2013-03-16 10:40:00,81.2,34.2,29.92,SE,135,3.9,5.5,18,0.00,,,0.00,tws,2013-03-16 17:40:00,
2013-03-16 10:50:00,80.5,33.8,29.92,SE,135,3.0,5.2,18,0.00,,,0.00,tws,2013-03-16 17:50:00,
2013-03-16 11:00:00,79.9,33.0,29.93,SE,135,2.9,6.2,17,0.00,,,0.00,tws,2013-03-16 18:00:00,
2013-03-16 11:10:00,80.0,34.5,29.92,SE,135,3.3,5.5,19,0.00,,,0.00,tws,2013-03-16 18:10:00,
2013-03-16 11:20:00,81.2,35.1,29.91,South,180,3.3,5.9,18,0.00,,,0.00,tws,2013-03-16 18:20:00,
2013-03-16 11:30:00,82.3,36.0,29.91,ESE,112,3.4,5.4,18,0.00,,,0.00,tws,2013-03-16 18:30:00,
2013-03-16 11:40:00,82.4,35.1,29.91,SW,225,3.7,5.2,18,0.00,,,0.00,tws,2013-03-16 18:40:00,
2013-03-16 11:50:00,82.0,33.8,29.90,South,180,3.4,6.1,17,0.00,,,0.00,tws,2013-03-16 18:50:00,
2013-03-16 12:00:00,82.2,35.8,29.90,East,90,3.0,5.4,18,0.00,,,0.00,tws,2013-03-16 19:00:00,
2013-03-16 12:10:00,82.5,36.3,29.89,ESE,112,3.6,5.0,18,0.00,,,0.00,tws,2013-03-16 19:10:00,
2013-03-16 12:20:00,82.5,34.8,29.89,NW,315,3.8,5.3,17,0.00,,,0.00,tws,2013-03-16 19:20:00,
2013-03-16 12:30:00,83.2,35.9,29.88,ESE,112,3.2,4.4,18,0.00,,,0.00,tws,2013-03-16 19:30:00,
2013-03-16 12:40:00,84.3,36.0,29.86,WSW,247,3.5,4.6,17,0.00,,,0.00,tws,2013-03-16 19:40:00,
2013-03-16 12:50:00,84.6,35.6,29.86,SE,135,3.4,6.7,17,0.00,,,0.00,tws,2013-03-16 19:50:00,
2013-03-16 13:00:00,84.4,35.3,29.85,East,90,2.3,4.5,16,0.00,,,0.00,tws,2013-03-16 20:00:00,
2013-03-16 13:10:00,84.5,35.3,29.84,SE,135,2.9,4.8,16,0.00,,,0.00,tws,2013-03-16 20:10:00,
2013-03-16 13:20:00,84.5,34.3,29.84,SE,135,4.6,6.6,16,0.00,,,0.00,tws,2013-03-16 20:20:00,
2013-03-16 13:30:00,84.7,34.9,29.84,South,180,4.9,8.1,16,0.00,,,0.00,tws,2013-03-16 20:30:00,
2013-03-16 13:40:00,85.2,34.4,29.83,South,180,5.8,8.9,15,0.00,,,0.00,tws,2013-03-16 20:40:00,
2013-03-16 13:50:00,85.8,32.7,29.82,SSE,157,8.1,11.9,14,0.00,,,0.00,tws,2013-03-16 20:50:00,
2013-03-16 14:00:00,85.9,33.4,29.81,South,180,6.4,9.8,14,0.00,,,0.00,tws,2013-03-16 21:00:00,
2013-03-16 14:10:00,86.0,31.0,29.80,SSW,202,11.2,17.3,13,0.00,,,0.00,tws,2013-03-16 21:10:00,
2013-03-16 14:20:00,86.0,29.4,29.80,SE,135,10.6,17.4,12,0.00,,,0.00,tws,2013-03-16 21:20:00,
2013-03-16 14:30:00,86.1,29.0,29.80,SW,225,9.9,13.7,12,0.00,,,0.00,tws,2013-03-16 21:30:00,
2013-03-16 14:40:00,86.4,29.1,29.80,South,180,10.1,13.9,12,0.00,,,0.00,tws,2013-03-16 21:40:00,
2013-03-16 14:50:00,86.6,29.8,29.80,South,180,11.1,13.5,12,0.00,,,0.00,tws,2013-03-16 21:50:00,
2013-03-16 15:00:00,86.8,30.0,29.79,SW,225,9.6,12.5,12,0.00,,,0.00,tws,2013-03-16 22:00:00,
2013-03-16 15:10:00,87.1,30.8,29.78,South,180,9.0,11.6,12,0.00,,,0.00,tws,2013-03-16 22:10:00,
2013-03-16 15:20:00,87.2,30.3,29.78,South,180,10.4,13.1,12,0.00,,,0.00,tws,2013-03-16 22:20:00,
2013-03-16 15:30:00,87.2,30.5,29.77,SSE,157,9.8,12.3,12,0.00,,,0.00,tws,2013-03-16 22:30:00,
2013-03-16 15:40:00,87.2,29.3,29.76,South,180,9.4,12.0,12,0.00,,,0.00,tws,2013-03-16 22:40:00,
2013-03-16 15:50:00,87.3,28.9,29.76,South,180,10.4,13.5,11,0.00,,,0.00,tws,2013-03-16 22:50:00,
2013-03-16 16:00:00,87.6,29.0,29.75,South,180,10.2,12.7,11,0.00,,,0.00,tws,2013-03-16 23:00:00,
2013-03-16 16:10:00,88.0,29.0,29.76,South,180,9.5,13.1,11,0.00,,,0.00,tws,2013-03-16 23:10:00,
2013-03-16 16:20:00,88.3,28.4,29.75,SE,135,10.5,13.7,11,0.00,,,0.00,tws,2013-03-16 23:20:00,
2013-03-16 16:30:00,88.2,27.9,29.75,SSW,202,11.3,14.2,11,0.00,,,0.00,tws,2013-03-16 23:30:00,
2013-03-16 16:40:00,87.7,29.0,29.76,South,180,10.1,11.9,11,0.00,,,0.00,tws,2013-03-16 23:40:00,
2013-03-16 16:50:00,86.5,28.7,29.76,South,180,12.5,14.9,12,0.00,,,0.00,tws,2013-03-16 23:50:00,
2013-03-16 17:00:00,85.1,27.9,29.76,South,180,8.2,11.0,12,0.00,,,0.00,tws,2013-03-17 00:00:00,
2013-03-16 17:10:00,84.2,27.7,29.77,SSW,202,10.0,13.5,12,0.00,,,0.00,tws,2013-03-17 00:10:00,
2013-03-16 17:20:00,83.6,27.4,29.77,South,180,10.6,11.6,12,0.00,,,0.00,tws,2013-03-17 00:20:00,
2013-03-16 17:30:00,83.0,27.4,29.77,South,180,9.3,13.8,12,0.00,,,0.00,tws,2013-03-17 00:30:00,
2013-03-16 17:40:00,82.6,27.3,29.77,SE,135,10.6,13.5,13,0.00,,,0.00,tws,2013-03-17 00:40:00,
2013-03-16 17:50:00,82.1,27.9,29.78,South,180,9.2,12.1,13,0.00,,,0.00,tws,2013-03-17 00:50:00,
2013-03-16 18:00:00,81.5,27.8,29.80,SE,135,10.9,13.6,13,0.00,,,0.00,tws,2013-03-17 01:00:00,
2013-03-16 18:10:00,80.8,27.5,29.80,SSE,157,10.5,13.6,13,0.00,,,0.00,tws,2013-03-17 01:10:00,
2013-03-16 18:20:00,80.1,27.2,29.79,South,180,9.7,11.0,14,0.00,,,0.00,tws,2013-03-17 01:20:00,
2013-03-16 18:30:00,79.4,26.5,29.80,SSW,202,8.1,10.1,14,0.00,,,0.00,tws,2013-03-17 01:30:00,
2013-03-16 18:40:00,78.7,26.4,29.80,South,180,6.9,9.2,14,0.00,,,0.00,tws,2013-03-17 01:40:00,
2013-03-16 18:50:00,78.2,26.1,29.81,South,180,6.1,7.8,14,0.00,,,0.00,tws,2013-03-17 01:50:00,
2013-03-16 19:00:00,77.5,25.8,29.81,SSE,157,5.0,6.0,14,0.00,,,0.00,tws,2013-03-17 02:00:00,
2013-03-16 19:10:00,76.8,25.9,29.81,South,180,5.1,6.1,14,0.00,,,0.00,tws,2013-03-17 02:10:00,
2013-03-16 19:20:00,76.2,26.0,29.82,SW,225,3.3,5.0,15,0.00,,,0.00,tws,2013-03-17 02:20:00,
2013-03-16 19:30:00,75.5,26.5,29.82,SW,225,2.8,4.6,16,0.00,,,0.00,tws,2013-03-17 02:30:00,
2013-03-16 19:40:00,74.6,27.6,29.82,South,180,0.5,2.2,17,0.00,,,0.00,tws,2013-03-17 02:40:00,
2013-03-16 19:50:00,73.7,28.7,29.82,SSE,157,1.8,2.9,18,0.00,,,0.00,tws,2013-03-17 02:50:00,
2013-03-16 20:00:00,72.6,28.2,29.83,South,180,3.3,4.6,18,0.00,,,0.00,tws,2013-03-17 03:00:00,
2013-03-16 20:10:00,71.8,28.7,29.83,WNW,292,0.8,2.4,19,0.00,,,0.00,tws,2013-03-17 03:10:00,
2013-03-16 20:20:00,71.2,29.7,29.83,SW,225,0.3,2.0,21,0.00,,,0.00,tws,2013-03-17 03:20:00,
2013-03-16 20:30:00,70.4,30.3,29.83,SW,225,1.2,2.1,22,0.00,,,0.00,tws,2013-03-17 03:30:00,
2013-03-16 20:40:00,69.6,30.1,29.83,SSW,202,3.4,4.0,22,0.00,,,0.00,tws,2013-03-17 03:40:00,
2013-03-16 20:50:00,69.3,30.5,29.85,SW,225,3.5,4.3,23,0.00,,,0.00,tws,2013-03-17 03:50:00,
2013-03-16 21:00:00,69.0,30.7,29.84,SW,225,2.8,3.2,23,0.00,,,0.00,tws,2013-03-17 04:00:00,
2013-03-16 21:10:00,68.5,30.7,29.85,SW,225,2.3,3.1,24,0.00,,,0.00,tws,2013-03-17 04:10:00,
2013-03-16 21:20:00,67.9,30.9,29.85,SW,225,3.8,4.5,24,0.00,,,0.00,tws,2013-03-17 04:20:00,
2013-03-16 21:30:00,67.5,30.9,29.86,SW,225,3.6,4.5,25,0.00,,,0.00,tws,2013-03-17 04:30:00,
2013-03-16 21:40:00,67.2,31.2,29.87,SW,225,3.3,3.7,25,0.00,,,0.00,tws,2013-03-17 04:40:00,
2013-03-16 21:50:00,66.8,31.2,29.86,SW,225,2.0,3.1,26,0.00,,,0.00,tws,2013-03-17 04:50:00,
2013-03-16 22:00:00,66.1,31.4,29.87,SSW,202,2.5,3.0,26,0.00,,,0.00,tws,2013-03-17 05:00:00,
2013-03-16 22:10:00,65.5,31.2,29.88,SW,225,3.8,4.6,27,0.00,,,0.00,tws,2013-03-17 05:10:00,
2013-03-16 22:20:00,65.2,31.2,29.88,South,180,3.5,4.1,27,0.00,,,0.00,tws,2013-03-17 05:20:00,
2013-03-16 22:30:00,64.9,31.1,29.89,SSW,202,3.5,4.8,27,0.00,,,0.00,tws,2013-03-17 05:30:00,
2013-03-16 22:40:00,64.6,30.9,29.89,SW,225,2.9,4.0,27,0.00,,,0.00,tws,2013-03-17 05:40:00,
2013-03-16 22:50:00,64.2,31.5,29.89,SW,225,2.4,2.9,29,0.00,,,0.00,tws,2013-03-17 05:50:00,
2013-03-16 23:00:00,63.7,31.4,29.89,WSW,247,2.4,3.2,29,0.00,,,0.00,tws,2013-03-17 06:00:00,
2013-03-16 23:10:00,63.2,31.8,29.88,NW,315,2.0,2.5,30,0.00,,,0.00,tws,2013-03-17 06:10:00,
2013-03-16 23:20:00,62.6,31.9,29.88,WNW,292,2.7,4.1,31,0.00,,,0.00,tws,2013-03-17 06:20:00,
2013-03-16 23:30:00,62.0,31.7,29.89,NW,315,1.8,3.3,31,0.00,,,0.00,tws,2013-03-17 06:30:00,
2013-03-16 23:40:00,61.5,31.5,29.88,NW,315,3.0,3.8,31,0.00,,,0.00,tws,2013-03-17 06:40:00,
2013-03-16 23:50:00,61.1,31.7,29.88,NW,315,2.1,3.7,32,0.00,,,0.00,tws,2013-03-17 06:50:00,